Weather History for Jerez de la Frontera, Spain

Change the Weather History Date:

Tuesday, July 16, 2013

  Actual Average Record
Temperature  
Mean Temperature 79 °F -  
Max Temperature 95 °F 88 °F 98 °F (1998)
Min Temperature 63 °F 63 °F 55 °F (2003)
Cooling Degree Days 14    
Growing Degree Days 29 (Base 50)    
Moisture  
Dew Point 62 °F    
Average Humidity 56    
Maximum Humidity 100    
Minimum Humidity 20    
Precipitation  
Precipitation 0.00 in 0.00 in - ()
Sea Level Pressure  
Sea Level Pressure 30.06 in    
Wind  
Wind Speed 3 mph ()    
Max Wind Speed 22 mph    
Max Gust Speed -    
Visibility 7.4 miles    
Events      
Averages and records for this station are not official NWS values.
T = Trace of Precipitation, MM = Missing Value Source: Averaged Metar Reports

Daily Weather History Graph

Daily Weather History Graph

Search for Another Location

Airport:

Trip Planner

Search our weather history database for the weather conditions in past years. The results will help you decide how hot, cold, wet, or windy it might be!

Date:

Astronomy

Jul. 16, 2013 Rise Set
Actual Time 7:17 AM CEST 9:42 PM CEST
Civil Twilight 6:47 AM CEST 10:12 PM CEST
Nautical Twilight 6:11 AM CEST 10:48 PM CEST
Astronomical Twilight 5:30 AM CEST 11:29 PM CEST
Moon 3:12 PM CEST (7/16) 1:34 AM CEST (7/16)
Length of Visible Light 15h 24m
Length of Day
14h 24m
First Quarter, 53% of the Moon is Illuminated
Jul 16
First Quarter
Jul 22
Full
Jul 29
Last Quarter
Aug 6
New
Aug 14
First Quarter

Hourly Weather History & Observations

Time (CEST) Temp. Heat Index Dew Point Humidity Pressure Visibility Wind Dir Wind Speed Gust Speed Precip Events Conditions
12:00 AM 72 °F - 67 °F 80% 30.09 in - WSW 2.3 mph - -  
1:00 AM 72 °F - 67 °F 81% 30.09 in - SW 2.3 mph - -  
2:00 AM 69 °F - 66 °F 87% 30.09 in 7 mi Calm Calm - -  
3:00 AM 67 °F - 65 °F 90% 30.09 in - Calm Calm - -  
4:00 AM 65 °F - 64 °F 93% 30.08 in - East 4.5 mph - -  
5:00 AM 65 °F - 63 °F 90% 30.08 in 6 mi East 1.2 mph - -  
5:00 AM 64.4 °F - 62.6 °F 94% 30.06 in - Variable 2.3 mph - N/A   Clear
5:30 AM 64.4 °F - 62.6 °F 94% 30.06 in - East 3.5 mph - N/A   Clear
6:00 AM 64 °F - 63 °F 95% 30.08 in - NNW 3.5 mph - -  
6:00 AM 64.4 °F - 64.4 °F 100% 30.06 in 5.6 mi NNW 3.5 mph - N/A   Unknown
6:30 AM 64.4 °F - 62.6 °F 94% 30.06 in 5.6 mi Variable 1.2 mph - N/A   Unknown
7:00 AM 64 °F - 62 °F 92% 30.09 in - Calm Calm - -  
7:00 AM 64.4 °F - 62.6 °F 94% 30.06 in 4.3 mi Calm Calm - N/A   Unknown
7:30 AM 64.4 °F - 62.6 °F 94% 30.06 in 4.3 mi Calm Calm - N/A   Unknown
8:00 AM 65 °F - 63 °F 91% 30.09 in 4 mi Calm Calm - -   Mist
8:00 AM 66.2 °F - 64.4 °F 94% 30.06 in 4.3 mi Calm Calm - N/A   Unknown
8:30 AM 68.0 °F - 64.4 °F 88% 30.09 in 4.3 mi Calm Calm - N/A   Unknown
9:00 AM 71 °F - 66 °F 81% 30.10 in - Calm Calm - -  
9:00 AM 69.8 °F - 66.2 °F 88% 30.09 in 4.3 mi Calm Calm - N/A   Unknown
9:30 AM 71.6 °F - 66.2 °F 83% 30.09 in 4.3 mi Variable 1.2 mph - N/A   Unknown
10:00 AM 77 °F - 65 °F 59% 30.10 in - South 2.3 mph - -  
10:00 AM 75.2 °F - 66.2 °F 73% 30.09 in 5.6 mi Variable 2.3 mph - N/A   Unknown
10:30 AM 78.8 °F - 66.2 °F 65% 30.09 in - Calm Calm - N/A   Clear
11:00 AM 82 °F - 65 °F 48% 30.10 in 11 mi NE 2.2 mph - -  
11:00 AM 80.6 °F 82.7 °F 66.2 °F 61% 30.09 in - Calm Calm - N/A   Clear
11:30 AM 82.4 °F 84.6 °F 66.2 °F 58% 30.09 in - Variable 1.2 mph - N/A   Clear
12:00 PM 85 °F - 64 °F 40% 30.10 in - NNW 1.2 mph - -  
12:00 PM 82.4 °F 83.9 °F 64.4 °F 54% 30.09 in - Variable 1.2 mph - N/A   Clear
12:30 PM 84.2 °F 85.6 °F 64.4 °F 51% 30.09 in - Calm Calm - N/A   Clear
1:00 PM 90 °F - 63 °F 30% 30.09 in - NW 2.3 mph - -  
1:00 PM 87.8 °F 88.5 °F 62.6 °F 43% 30.09 in - Variable 2.3 mph - N/A   Clear
1:30 PM 87.8 °F 88.5 °F 62.6 °F 43% 30.06 in - Variable 2.3 mph - N/A   Clear
2:00 PM 92 °F - 61 °F 26% 30.08 in 12 mi NE 6.7 mph - -  
2:00 PM 89.6 °F 90.1 °F 62.6 °F 40% 30.06 in - Variable 2.3 mph - N/A   Clear
2:30 PM 91.4 °F 90.7 °F 59.0 °F 34% 30.06 in - Variable 1.2 mph - N/A   Clear
3:00 PM 95 °F - 58 °F 20% 30.06 in - ENE 4.5 mph - -  
3:00 PM 93.2 °F 92.6 °F 59.0 °F 32% 30.06 in - Variable 2.3 mph - N/A   Clear
3:30 PM 93.2 °F 94.1 °F 62.6 °F 36% 30.04 in - Variable 5.8 mph - N/A   Clear
4:00 PM 95 °F - 61 °F 23% 30.05 in - NW 11.2 mph - -  
4:00 PM 93.2 °F 93.3 °F 60.8 °F 34% 30.04 in - NNW 4.6 mph - N/A   Clear
4:30 PM 91.4 °F 91.4 °F 60.8 °F 36% 30.04 in - West 10.4 mph - N/A   Clear
5:00 PM 94 °F - 61 °F 23% 30.04 in 16 mi West 22.4 mph - -  
5:00 PM 93.2 °F 93.3 °F 60.8 °F 34% 30.04 in - West 10.4 mph - N/A   Clear
5:30 PM 91.4 °F 90.7 °F 59.0 °F 34% 30.04 in - West 9.2 mph - N/A   Clear
6:00 PM 93 °F - 59 °F 23% 30.03 in - West 8.1 mph - -  
6:00 PM 91.4 °F 90.7 °F 59.0 °F 34% 30.01 in - West 8.1 mph - N/A   Clear
6:30 PM 93.2 °F 92.6 °F 59.0 °F 32% 30.01 in - West 6.9 mph - N/A   Clear
7:00 PM 93 °F - 58 °F 21% 30.02 in - West 9.2 mph - -  
7:00 PM 91.4 °F 90.7 °F 59.0 °F 34% 30.01 in - West 8.1 mph - N/A   Clear
7:30 PM 91.4 °F 89.9 °F 57.2 °F 31% 30.01 in - West 9.2 mph - N/A   Clear
8:00 PM 90 °F - 57 °F 23% 30.02 in 16 mi West 10.4 mph - -  
8:00 PM 87.8 °F 86.5 °F 57.2 °F 35% 30.01 in - West 10.4 mph - N/A   Clear
8:30 PM 87.8 °F 86.1 °F 55.4 °F 33% 30.01 in - West 8.1 mph - N/A   Clear
9:00 PM 86 °F - 55 °F 25% 30.04 in - West 15.7 mph - -  
9:00 PM 86.0 °F 84.9 °F 57.2 °F 37% 30.04 in - West 8.1 mph - N/A   Clear
9:30 PM 84.2 °F 83.0 °F 55.4 °F 37% 30.04 in - West 8.1 mph - N/A   Clear
10:00 PM 82 °F - 57 °F 32% 30.05 in - WSW 3.5 mph - -  
10:00 PM 82.4 °F 82.0 °F 57.2 °F 42% 30.04 in - West 3.5 mph - N/A   Clear
10:30 PM 78.8 °F - 59.0 °F 51% 30.06 in - West 4.6 mph - N/A   Clear
11:00 PM 78 °F - 64 °F 54% 30.08 in 12 mi West 4.6 mph - -  
11:00 PM 77.0 °F - 64.4 °F 65% 30.06 in - West 4.6 mph - N/A   Clear